DLH8LW ESGG-EDDH

Flight info

Callsign DLH8LW
Flight time 0h 54m
Altitude 34000
Route VADIN DCT ALASA M852 EKERN T905 BOGMU BOGMU5A
Aircraft A20N/M-SDE2E3FGHIRWXY/LB1

Departure

Time 2026-05-06 14:47
Airport Göteborg Landvetter Airport (ESGG)

Arrival

Time 2026-05-06 15:42
Airport Hamburg Helmut Schmidt Airport (EDDH)
Time Latitude Longitude Altitude Speed Heading
2026-05-06 14:29 57.66728 12.29277 513 ft 0 kts 116°
2026-05-06 14:35 57.66728 12.29276 513 ft 0 kts 116°
2026-05-06 14:39 57.66734 12.29252 513 ft 2 kts 116°
2026-05-06 14:39 57.66741 12.29227 513 ft 2 kts 116°
2026-05-06 14:39 57.66747 12.29202 513 ft 2 kts 115°
2026-05-06 14:39 57.66754 12.29177 513 ft 1 kts 116°
2026-05-06 14:40 57.66758 12.29161 513 ft 2 kts 100°
2026-05-06 14:40 57.66756 12.29134 513 ft 2 kts 58°
2026-05-06 14:40 57.66748 12.29118 512 ft 0 kts 29°
2026-05-06 14:40 57.66742 12.29113 512 ft 1 kts 24°
2026-05-06 14:41 57.66741 12.29112 512 ft 0 kts 24°
2026-05-06 14:43 57.66743 12.29114 512 ft 1 kts 19°
2026-05-06 14:43 57.66771 12.29091 512 ft 5 kts 316°
2026-05-06 14:44 57.66797 12.29021 512 ft 7 kts 312°
2026-05-06 14:44 57.66849 12.29008 512 ft 8 kts 19°
2026-05-06 14:44 57.66916 12.29071 512 ft 13 kts 26°
2026-05-06 14:45 57.67110 12.29243 513 ft 19 kts 25°
2026-05-06 14:45 57.67244 12.29367 513 ft 21 kts 25°
2026-05-06 14:45 57.67348 12.29461 514 ft 11 kts 25°
2026-05-06 14:45 57.67418 12.29438 514 ft 7 kts 301°
2026-05-06 14:46 57.67444 12.29337 513 ft 8 kts 295°
2026-05-06 14:46 57.67458 12.29239 513 ft 8 kts 273°
2026-05-06 14:46 57.67451 12.29118 513 ft 10 kts 262°
2026-05-06 14:46 57.67414 12.29010 513 ft 11 kts 208°
2026-05-06 14:47 57.67239 12.28848 512 ft 62 kts 205°
2026-05-06 14:47 57.66626 12.28291 510 ft 132 kts 206°
2026-05-06 14:47 57.65633 12.27397 703 ft 172 kts 207°
2026-05-06 14:47 57.64566 12.26454 1441 ft 174 kts 207°
2026-05-06 14:48 57.63472 12.25484 2199 ft 179 kts 207°
2026-05-06 14:48 57.62355 12.24489 2977 ft 182 kts 206°
2026-05-06 14:48 57.61228 12.23485 3779 ft 183 kts 205°
2026-05-06 14:48 57.60111 12.22490 4561 ft 183 kts 205°
2026-05-06 14:49 57.58972 12.21476 5336 ft 184 kts 204°
2026-05-06 14:49 57.57822 12.20453 6104 ft 184 kts 203°
2026-05-06 14:49 57.56683 12.19442 6853 ft 185 kts 203°
2026-05-06 14:49 57.55525 12.18457 7542 ft 188 kts 197°
2026-05-06 14:50 57.54206 12.18369 7983 ft 202 kts 161°
2026-05-06 14:50 57.52927 12.19600 8451 ft 217 kts 151°
2026-05-06 14:50 57.51443 12.20409 8884 ft 235 kts 178°
2026-05-06 14:50 57.49748 12.20225 9314 ft 255 kts 184°
2026-05-06 14:51 57.47939 12.20039 9978 ft 266 kts 181°
2026-05-06 14:51 57.46035 12.20062 10495 ft 284 kts 179°
2026-05-06 14:51 57.44036 12.19670 10913 ft 302 kts 199°
2026-05-06 14:51 57.42189 12.17677 11318 ft 318 kts 223°
2026-05-06 14:52 57.40607 12.14660 11750 ft 335 kts 227°
2026-05-06 14:52 57.38977 12.11488 12332 ft 346 kts 227°
2026-05-06 14:52 57.37304 12.08279 13137 ft 350 kts 227°
2026-05-06 14:52 57.35616 12.05076 13943 ft 353 kts 227°
2026-05-06 14:53 57.33909 12.01852 14726 ft 355 kts 227°
2026-05-06 14:53 57.32183 11.98608 15538 ft 356 kts 227°
2026-05-06 14:53 57.30445 11.95352 16375 ft 357 kts 227°
2026-05-06 14:53 57.28713 11.92114 17132 ft 358 kts 227°
2026-05-06 14:54 57.26960 11.88843 17879 ft 359 kts 227°
2026-05-06 14:54 57.25209 11.85581 18568 ft 361 kts 228°
2026-05-06 14:54 57.23449 11.82307 19253 ft 363 kts 228°
2026-05-06 14:54 57.21655 11.78976 19948 ft 364 kts 227°
2026-05-06 14:55 57.19881 11.75688 20608 ft 365 kts 227°
2026-05-06 14:55 57.18100 11.72394 21261 ft 367 kts 227°
2026-05-06 14:55 57.16304 11.69083 21887 ft 368 kts 226°
2026-05-06 14:55 57.14354 11.66045 22500 ft 373 kts 219°
2026-05-06 14:56 57.12180 11.63471 23097 ft 377 kts 213°
2026-05-06 14:56 57.09814 11.61385 23610 ft 382 kts 208°
2026-05-06 14:56 57.07348 11.59462 24076 ft 384 kts 207°
2026-05-06 14:56 57.04897 11.57579 24709 ft 385 kts 207°
2026-05-06 14:57 57.02442 11.55698 25276 ft 386 kts 207°
2026-05-06 14:57 56.99961 11.53800 25787 ft 389 kts 206°
2026-05-06 14:57 56.97479 11.51904 26280 ft 391 kts 206°
2026-05-06 14:57 56.94974 11.49992 26781 ft 393 kts 206°
2026-05-06 14:58 56.92424 11.48048 27255 ft 395 kts 206°
2026-05-06 14:58 56.89904 11.46131 27691 ft 398 kts 206°
2026-05-06 14:58 56.87326 11.44174 28129 ft 400 kts 206°
2026-05-06 14:58 56.84742 11.42214 28549 ft 402 kts 206°
2026-05-06 14:59 56.82161 11.40259 28937 ft 404 kts 205°
2026-05-06 14:59 56.79590 11.38316 29300 ft 405 kts 205°
2026-05-06 14:59 56.76987 11.36348 29645 ft 407 kts 205°
2026-05-06 14:59 56.74374 11.34378 29956 ft 409 kts 204°
2026-05-06 15:00 56.71751 11.32404 30361 ft 408 kts 204°
2026-05-06 15:00 56.69105 11.30416 30835 ft 405 kts 204°
2026-05-06 15:00 56.66518 11.28474 31255 ft 404 kts 204°
2026-05-06 15:00 56.63935 11.26538 31599 ft 404 kts 204°
2026-05-06 15:01 56.61348 11.24604 31903 ft 404 kts 204°
2026-05-06 15:01 56.58752 11.22662 32215 ft 405 kts 204°
2026-05-06 15:01 56.56165 11.20733 32477 ft 406 kts 204°
2026-05-06 15:01 56.53571 11.18799 32715 ft 407 kts 204°
2026-05-06 15:02 56.50951 11.16851 32918 ft 409 kts 204°
2026-05-06 15:02 56.48317 11.14893 33117 ft 411 kts 204°
2026-05-06 15:02 56.45679 11.12938 33331 ft 413 kts 204°
2026-05-06 15:02 56.43035 11.10980 33547 ft 414 kts 204°
2026-05-06 15:03 56.40389 11.09022 33750 ft 415 kts 204°
2026-05-06 15:03 56.37729 11.07056 33921 ft 416 kts 204°
2026-05-06 15:03 56.35024 11.05061 33930 ft 417 kts 204°
2026-05-06 15:04 56.29699 11.01143 33938 ft 417 kts 204°
2026-05-06 15:04 56.24323 10.97199 33939 ft 418 kts 204°
2026-05-06 15:05 56.18928 10.93253 33939 ft 419 kts 204°
2026-05-06 15:05 56.13546 10.89331 33940 ft 419 kts 204°
2026-05-06 15:06 56.08149 10.85407 33938 ft 420 kts 204°
2026-05-06 15:06 56.02771 10.81511 33939 ft 421 kts 204°
2026-05-06 15:07 55.97342 10.77587 33939 ft 421 kts 204°
2026-05-06 15:07 55.91937 10.73692 33938 ft 421 kts 204°
2026-05-06 15:08 55.86491 10.69780 33938 ft 422 kts 204°
2026-05-06 15:08 55.81097 10.65918 33938 ft 422 kts 204°
2026-05-06 15:09 55.75638 10.62020 33936 ft 423 kts 204°
2026-05-06 15:09 55.70209 10.58155 33934 ft 424 kts 204°
2026-05-06 15:10 55.64706 10.54252 33932 ft 425 kts 204°
2026-05-06 15:10 55.59234 10.50381 33930 ft 425 kts 204°
2026-05-06 15:11 55.53768 10.46527 33925 ft 425 kts 204°
2026-05-06 15:11 55.48289 10.42674 33923 ft 425 kts 204°
2026-05-06 15:12 55.42789 10.38818 33919 ft 425 kts 203°
2026-05-06 15:12 55.37303 10.34981 33916 ft 425 kts 202°
2026-05-06 15:13 55.31807 10.31151 33908 ft 426 kts 202°
2026-05-06 15:13 55.26313 10.27335 33905 ft 427 kts 202°
2026-05-06 15:14 55.20840 10.23545 33563 ft 420 kts 202°
2026-05-06 15:14 55.18150 10.21686 32861 ft 419 kts 202°
2026-05-06 15:14 55.15469 10.19833 32190 ft 417 kts 202°
2026-05-06 15:14 55.12783 10.17982 31524 ft 418 kts 202°
2026-05-06 15:15 55.10083 10.16122 30867 ft 418 kts 202°
2026-05-06 15:15 55.07380 10.14265 30259 ft 420 kts 202°
2026-05-06 15:15 55.04652 10.12394 29651 ft 422 kts 202°
2026-05-06 15:15 55.01934 10.10532 29045 ft 421 kts 202°
2026-05-06 15:16 54.99248 10.08695 28448 ft 417 kts 202°
2026-05-06 15:16 54.96571 10.06867 27850 ft 414 kts 202°
2026-05-06 15:16 54.93893 10.05039 27248 ft 411 kts 203°
2026-05-06 15:16 54.91246 10.03236 26652 ft 408 kts 202°
2026-05-06 15:17 54.88634 10.01458 26058 ft 406 kts 203°
2026-05-06 15:17 54.85998 9.99667 25460 ft 404 kts 202°
2026-05-06 15:17 54.83389 9.97976 24866 ft 402 kts 200°
2026-05-06 15:17 54.80708 9.96517 24267 ft 400 kts 198°
2026-05-06 15:18 54.78054 9.95342 23694 ft 398 kts 195°
2026-05-06 15:18 54.75349 9.94407 23293 ft 395 kts 192°
2026-05-06 15:18 54.72640 9.93526 22868 ft 396 kts 193°
2026-05-06 15:18 54.69973 9.92642 22407 ft 393 kts 193°
2026-05-06 15:19 54.67291 9.91759 21936 ft 391 kts 193°
2026-05-06 15:19 54.64623 9.90887 21464 ft 389 kts 192°
2026-05-06 15:19 54.62008 9.90043 20991 ft 387 kts 192°
2026-05-06 15:19 54.59364 9.89198 20501 ft 385 kts 192°
2026-05-06 15:20 54.56770 9.88371 20046 ft 382 kts 192°
2026-05-06 15:20 54.54153 9.87543 19579 ft 380 kts 191°
2026-05-06 15:20 54.51561 9.87273 19112 ft 380 kts 178°
2026-05-06 15:20 54.48960 9.88008 18668 ft 380 kts 166°
2026-05-06 15:21 54.46502 9.89646 18289 ft 380 kts 157°
2026-05-06 15:21 54.44138 9.91563 17913 ft 379 kts 156°
2026-05-06 15:21 54.41753 9.93533 17534 ft 377 kts 156°
2026-05-06 15:21 54.39411 9.95464 17168 ft 376 kts 156°
2026-05-06 15:22 54.37070 9.97383 16796 ft 375 kts 156°
2026-05-06 15:22 54.34724 9.99297 16429 ft 375 kts 156°
2026-05-06 15:22 54.32350 10.01227 16042 ft 374 kts 155°
2026-05-06 15:22 54.30024 10.03112 15672 ft 372 kts 155°
2026-05-06 15:23 54.27698 10.04995 15300 ft 371 kts 155°
2026-05-06 15:23 54.25379 10.06869 14945 ft 369 kts 155°
2026-05-06 15:23 54.23088 10.08719 14565 ft 367 kts 155°
2026-05-06 15:23 54.20757 10.10598 14199 ft 367 kts 155°
2026-05-06 15:24 54.18462 10.12445 13833 ft 366 kts 155°
2026-05-06 15:24 54.16176 10.14274 13459 ft 364 kts 155°
2026-05-06 15:24 54.13884 10.16080 13100 ft 362 kts 155°
2026-05-06 15:24 54.11556 10.17534 12725 ft 360 kts 170°
2026-05-06 15:25 54.09073 10.17332 12332 ft 356 kts 197°
2026-05-06 15:25 54.06937 10.15409 11865 ft 351 kts 220°
2026-05-06 15:25 54.05316 10.12367 11333 ft 348 kts 233°
2026-05-06 15:25 54.03860 10.09070 10957 ft 346 kts 233°
2026-05-06 15:26 54.02411 10.05853 10891 ft 347 kts 233°
2026-05-06 15:26 54.00914 10.02611 10891 ft 348 kts 232°
2026-05-06 15:26 53.99399 9.99391 10890 ft 348 kts 232°
2026-05-06 15:26 53.97886 9.96211 10878 ft 348 kts 231°
2026-05-06 15:27 53.96367 9.93044 10887 ft 347 kts 231°
2026-05-06 15:27 53.94849 9.89896 10884 ft 348 kts 231°
2026-05-06 15:27 53.93306 9.86706 10891 ft 348 kts 231°
2026-05-06 15:27 53.91774 9.83543 10880 ft 349 kts 231°
2026-05-06 15:28 53.90241 9.80381 10881 ft 349 kts 231°
2026-05-06 15:28 53.88701 9.77207 10874 ft 350 kts 231°
2026-05-06 15:28 53.87153 9.74020 10881 ft 350 kts 231°
2026-05-06 15:28 53.85619 9.70866 10871 ft 350 kts 231°
2026-05-06 15:29 53.84077 9.67700 10868 ft 350 kts 231°
2026-05-06 15:29 53.82524 9.64516 10878 ft 350 kts 231°
2026-05-06 15:29 53.80987 9.61370 10876 ft 350 kts 231°
2026-05-06 15:29 53.79431 9.58191 10869 ft 349 kts 231°
2026-05-06 15:30 53.77908 9.55084 10712 ft 335 kts 231°
2026-05-06 15:30 53.76474 9.52163 10375 ft 316 kts 231°
2026-05-06 15:30 53.74992 9.49549 10098 ft 299 kts 222°
2026-05-06 15:30 53.73411 9.47452 9808 ft 284 kts 215°
2026-05-06 15:31 53.71830 9.45645 9540 ft 270 kts 214°
2026-05-06 15:31 53.70254 9.44018 9321 ft 261 kts 202°
2026-05-06 15:31 53.68509 9.43535 9014 ft 255 kts 172°
2026-05-06 15:32 53.65100 9.44887 8388 ft 251 kts 163°
2026-05-06 15:32 53.63430 9.45603 7998 ft 248 kts 164°
2026-05-06 15:32 53.61753 9.46299 7549 ft 247 kts 164°
2026-05-06 15:32 53.60096 9.46972 7065 ft 245 kts 163°
2026-05-06 15:33 53.58448 9.47631 6616 ft 243 kts 163°
2026-05-06 15:33 53.56811 9.48280 6171 ft 242 kts 163°
2026-05-06 15:33 53.55183 9.48925 5710 ft 241 kts 163°
2026-05-06 15:33 53.53577 9.49559 5263 ft 239 kts 163°
2026-05-06 15:34 53.51956 9.50237 4789 ft 236 kts 156°
2026-05-06 15:34 53.50645 9.51669 4304 ft 226 kts 125°
2026-05-06 15:34 53.49781 9.53797 3900 ft 219 kts 116°
2026-05-06 15:34 53.49039 9.55993 3588 ft 212 kts 115°
2026-05-06 15:35 53.48354 9.58155 3245 ft 209 kts 114°
2026-05-06 15:35 53.47736 9.60325 2991 ft 203 kts 99°
2026-05-06 15:35 53.47607 9.62551 2974 ft 186 kts 87°
2026-05-06 15:35 53.47634 9.64713 2979 ft 183 kts 85°
2026-05-06 15:36 53.47826 9.66674 3057 ft 167 kts 71°
2026-05-06 15:36 53.48278 9.68477 3025 ft 165 kts 61°
2026-05-06 15:36 53.48883 9.70097 3008 ft 164 kts 55°
2026-05-06 15:36 53.49588 9.71592 3002 ft 165 kts 51°
2026-05-06 15:37 53.50333 9.73059 3000 ft 165 kts 51°
2026-05-06 15:37 53.51080 9.74538 2999 ft 165 kts 51°
2026-05-06 15:37 53.51791 9.75964 2987 ft 157 kts 51°
2026-05-06 15:37 53.52483 9.77367 2954 ft 156 kts 51°
2026-05-06 15:38 53.53176 9.78778 2769 ft 155 kts 51°
2026-05-06 15:38 53.53861 9.80178 2560 ft 154 kts 51°
2026-05-06 15:38 53.54535 9.81554 2354 ft 154 kts 51°
2026-05-06 15:38 53.55208 9.82927 2148 ft 152 kts 51°
2026-05-06 15:39 53.55883 9.84302 1947 ft 151 kts 50°
2026-05-06 15:39 53.56547 9.85655 1749 ft 151 kts 50°
2026-05-06 15:39 53.57210 9.87002 1575 ft 148 kts 50°
2026-05-06 15:39 53.57838 9.88279 1359 ft 134 kts 50°
2026-05-06 15:40 53.58414 9.89450 1164 ft 127 kts 50°
2026-05-06 15:40 53.58978 9.90596 999 ft 127 kts 49°
2026-05-06 15:40 53.59535 9.91727 841 ft 126 kts 49°
2026-05-06 15:40 53.60092 9.92857 677 ft 126 kts 49°
2026-05-06 15:41 53.60650 9.93990 508 ft 126 kts 49°
2026-05-06 15:41 53.61209 9.95116 336 ft 125 kts 52°
2026-05-06 15:41 53.61762 9.96241 166 ft 124 kts 49°
2026-05-06 15:41 53.62302 9.97331 62 ft 113 kts 51°
2026-05-06 15:42 53.62709 9.98159 62 ft 71 kts 49°
2026-05-06 15:42 53.62981 9.98703 62 ft 55 kts 50°
2026-05-06 15:42 53.63198 9.99146 62 ft 40 kts 51°
2026-05-06 15:42 53.63290 9.99403 62 ft 19 kts 85°
2026-05-06 15:43 53.63289 9.99537 62 ft 11 kts 95°
2026-05-06 15:43 53.63284 9.99606 62 ft 6 kts 98°
2026-05-06 15:43 53.63277 9.99684 62 ft 7 kts 96°
2026-05-06 15:43 53.63292 9.99784 62 ft 11 kts 58°
2026-05-06 15:44 53.63356 9.99916 62 ft 15 kts 50°
2026-05-06 15:44 53.63415 10.00038 62 ft 9 kts 52°
2026-05-06 15:44 53.63421 10.00135 62 ft 9 kts 122°
2026-05-06 15:44 53.63358 10.00162 62 ft 10 kts 178°
2026-05-06 15:45 53.63280 10.00168 62 ft 11 kts 177°
2026-05-06 15:45 53.63211 10.00186 62 ft 8 kts 147°
2026-05-06 15:45 53.63203 10.00274 62 ft 6 kts 86°
2026-05-06 15:45 53.63206 10.00349 62 ft 4 kts 85°
2026-05-06 15:46 53.63206 10.00361 62 ft 0 kts 86°